N122SP KLUK-KLEX

Flight info

Callsign N122SP
Flight time N/A
Altitude 10000
Route KFFT
Aircraft BE60/L-SDFGY/C

Departure

Time 2026-04-18 15:57
Airport Cincinnati Municipal Airport Lunken Field (KLUK)

Arrival

Time N/A
Airport Blue Grass Airport (KLEX)
Time Latitude Longitude Altitude Speed Heading
2026-04-18 15:31 39.10513 -84.42611 477 ft 0 kts 174°
2026-04-18 15:47 39.10506 -84.42614 473 ft 0 kts 231°
2026-04-18 15:47 39.10504 -84.42619 475 ft 0 kts 256°
2026-04-18 15:48 39.10504 -84.42621 475 ft 2 kts 256°
2026-04-18 15:48 39.10473 -84.42629 477 ft 7 kts 148°
2026-04-18 15:48 39.10453 -84.42588 475 ft 7 kts 58°
2026-04-18 15:48 39.10483 -84.42517 473 ft 11 kts 60°
2026-04-18 15:49 39.10525 -84.42417 474 ft 14 kts 62°
2026-04-18 15:49 39.10577 -84.42289 475 ft 18 kts 61°
2026-04-18 15:49 39.10639 -84.42137 475 ft 19 kts 63°
2026-04-18 15:49 39.10696 -84.41997 472 ft 17 kts 63°
2026-04-18 15:50 39.10749 -84.41868 475 ft 15 kts 62°
2026-04-18 15:50 39.10795 -84.41759 473 ft 12 kts 62°
2026-04-18 15:50 39.10834 -84.41666 475 ft 12 kts 61°
2026-04-18 15:50 39.10872 -84.41571 471 ft 12 kts 62°
2026-04-18 15:51 39.10931 -84.41496 473 ft 11 kts 22°
2026-04-18 15:51 39.10977 -84.41440 472 ft 10 kts 58°
2026-04-18 15:51 39.11001 -84.41380 470 ft 0 kts 85°
2026-04-18 15:55 39.10988 -84.41346 470 ft 10 kts 127°
2026-04-18 15:55 39.10924 -84.41283 471 ft 13 kts 152°
2026-04-18 15:56 39.10859 -84.41240 471 ft 3 kts 152°
2026-04-18 15:56 39.10839 -84.41221 472 ft 7 kts 123°
2026-04-18 15:56 39.10815 -84.41183 471 ft 5 kts 200°
2026-04-18 15:56 39.10717 -84.41239 475 ft 44 kts 202°
2026-04-18 15:57 39.10178 -84.41468 520 ft 107 kts 211°
2026-04-18 15:57 39.09421 -84.41828 885 ft 126 kts 208°
2026-04-18 15:57 39.08556 -84.42197 1230 ft 135 kts 200°
2026-04-18 15:57 39.07642 -84.42537 1586 ft 140 kts 193°
2026-04-18 15:58 39.06645 -84.42430 1669 ft 161 kts 179°
2026-04-18 15:58 39.05524 -84.42401 1934 ft 156 kts 185°
2026-04-18 15:58 39.04389 -84.42280 1778 ft 178 kts 182°
2026-04-18 15:58 39.03195 -84.42061 1933 ft 166 kts 179°
2026-04-18 15:59 39.02070 -84.41860 2338 ft 159 kts 181°
2026-04-18 15:59 39.00987 -84.41722 2500 ft 155 kts 176°
2026-04-18 15:59 38.99907 -84.41566 2526 ft 167 kts 186°
2026-04-18 15:59 38.98770 -84.41935 2543 ft 173 kts 203°
2026-04-18 16:00 38.97670 -84.42361 2893 ft 159 kts 204°
2026-04-18 16:00 38.96667 -84.42865 3106 ft 148 kts 201°
2026-04-18 16:00 38.95700 -84.43159 3463 ft 137 kts 201°
2026-04-18 16:00 38.94797 -84.43460 3832 ft 135 kts 200°
2026-04-18 16:01 38.93880 -84.43652 4208 ft 132 kts 201°
2026-04-18 16:01 38.92981 -84.43930 4557 ft 133 kts 203°
2026-04-18 16:01 38.92070 -84.44151 4937 ft 133 kts 199°
2026-04-18 16:01 38.91164 -84.44374 5335 ft 132 kts 201°
2026-04-18 16:02 38.90275 -84.44615 5690 ft 132 kts 199°
2026-04-18 16:02 38.89371 -84.44858 6056 ft 133 kts 200°
2026-04-18 16:02 38.88499 -84.45190 6398 ft 128 kts 210°
2026-04-18 16:02 38.87688 -84.45643 6741 ft 128 kts 210°
2026-04-18 16:03 38.86867 -84.46090 7083 ft 128 kts 210°
2026-04-18 16:03 38.86049 -84.46541 7417 ft 128 kts 210°
2026-04-18 16:03 38.85234 -84.46973 7718 ft 129 kts 210°
2026-04-18 16:03 38.84399 -84.47409 8054 ft 130 kts 210°
2026-04-18 16:04 38.83557 -84.47845 8387 ft 130 kts 210°
2026-04-18 16:04 38.82710 -84.48271 8694 ft 130 kts 210°
2026-04-18 16:04 38.81872 -84.48692 9053 ft 131 kts 210°
2026-04-18 16:04 38.81016 -84.49118 9421 ft 132 kts 210°
2026-04-18 16:05 38.80155 -84.49550 9787 ft 133 kts 210°
2026-04-18 16:05 38.79273 -84.49988 10011 ft 142 kts 210°
2026-04-18 16:05 38.78321 -84.50468 10029 ft 154 kts 210°
2026-04-18 16:05 38.77298 -84.51005 10025 ft 163 kts 209°
2026-04-18 16:06 38.76232 -84.51579 9996 ft 169 kts 210°
2026-04-18 16:06 38.75132 -84.52154 10026 ft 171 kts 210°
2026-04-18 16:06 38.74028 -84.52733 10030 ft 171 kts 210°
2026-04-18 16:06 38.72921 -84.53312 10028 ft 172 kts 210°
2026-04-18 16:07 38.71806 -84.53890 10026 ft 173 kts 210°
2026-04-18 16:07 38.70704 -84.54455 10026 ft 173 kts 210°
2026-04-18 16:07 38.69586 -84.55029 10021 ft 173 kts 209°
2026-04-18 16:07 38.68468 -84.55598 10020 ft 172 kts 209°
2026-04-18 16:08 38.67354 -84.56166 10018 ft 172 kts 209°
2026-04-18 16:08 38.66243 -84.56736 10018 ft 171 kts 209°
2026-04-18 16:08 38.65133 -84.57305 10014 ft 171 kts 209°
2026-04-18 16:08 38.64042 -84.57863 10016 ft 171 kts 209°
2026-04-18 16:09 38.62932 -84.58426 10023 ft 171 kts 209°
2026-04-18 16:09 38.61820 -84.58985 10026 ft 171 kts 209°
2026-04-18 16:09 38.60711 -84.59542 10023 ft 171 kts 209°
2026-04-18 16:09 38.59601 -84.60094 10025 ft 170 kts 209°
2026-04-18 16:10 38.58512 -84.60640 10023 ft 170 kts 209°
2026-04-18 16:10 38.57403 -84.61195 10018 ft 171 kts 209°
2026-04-18 16:10 38.56291 -84.61745 10018 ft 171 kts 209°
2026-04-18 16:10 38.55177 -84.62293 10024 ft 171 kts 209°
2026-04-18 16:11 38.54437 -84.62656 10027 ft 171 kts 209°
2026-04-18 16:11 38.53329 -84.63205 10021 ft 171 kts 208°
2026-04-18 16:11 38.52225 -84.63772 10014 ft 169 kts 214°
2026-04-18 16:11 38.51269 -84.64608 10020 ft 168 kts 215°
2026-04-18 16:12 38.50264 -84.65349 10019 ft 168 kts 217°
2026-04-18 16:12 38.49269 -84.66138 10020 ft 168 kts 217°
2026-04-18 16:12 38.48272 -84.66929 10046 ft 169 kts 217°
2026-04-18 16:12 38.47273 -84.67726 10035 ft 169 kts 217°
2026-04-18 16:13 38.46272 -84.68527 10035 ft 169 kts 217°
2026-04-18 16:13 38.45274 -84.69324 10041 ft 169 kts 217°
2026-04-18 16:13 38.44288 -84.70113 10040 ft 169 kts 217°
2026-04-18 16:13 38.43291 -84.70911 10042 ft 169 kts 217°
2026-04-18 16:14 38.42291 -84.71710 10052 ft 169 kts 217°
2026-04-18 16:14 38.41293 -84.72508 10054 ft 169 kts 217°
2026-04-18 16:14 38.40295 -84.73303 10053 ft 168 kts 217°
2026-04-18 16:14 38.39315 -84.74086 10057 ft 168 kts 217°
2026-04-18 16:15 38.37328 -84.75671 10068 ft 168 kts 217°
2026-04-18 16:15 38.36332 -84.76467 10071 ft 169 kts 217°
2026-04-18 16:15 38.35330 -84.77266 10075 ft 169 kts 217°
2026-04-18 16:16 38.34348 -84.78048 10069 ft 168 kts 217°
2026-04-18 16:16 38.33360 -84.78843 10077 ft 167 kts 218°
2026-04-18 16:16 38.32374 -84.79644 10085 ft 168 kts 217°
2026-04-18 16:16 38.31366 -84.80424 10085 ft 170 kts 217°
2026-04-18 16:17 38.30353 -84.81227 10088 ft 172 kts 217°
2026-04-18 16:17 38.29341 -84.82006 10095 ft 172 kts 213°
2026-04-18 16:17 38.28341 -84.82813 10076 ft 168 kts 221°
2026-04-18 16:17 38.27364 -84.83649 10078 ft 170 kts 216°
2026-04-18 16:18 38.26342 -84.84418 10085 ft 171 kts 217°
2026-04-18 16:18 38.25332 -84.85221 10087 ft 171 kts 217°
2026-04-18 16:18 38.24323 -84.86028 10092 ft 171 kts 217°
2026-04-18 16:18 38.23291 -84.86759 10091 ft 175 kts 207°
2026-04-18 16:19 38.22029 -84.86714 10101 ft 200 kts 169°
2026-04-18 16:19 38.20947 -84.85433 10096 ft 231 kts 129°
2026-04-18 16:19 38.20235 -84.83597 10097 ft 222 kts 141°
2026-04-18 16:19 38.19116 -84.82368 10101 ft 213 kts 151°
2026-04-18 16:20 38.18095 -84.80932 10100 ft 222 kts 141°
2026-04-18 16:20 38.17144 -84.79406 10100 ft 223 kts 140°
2026-04-18 16:20 38.16163 -84.77875 10100 ft 223 kts 141°
2026-04-18 16:20 38.15179 -84.76331 10091 ft 224 kts 141°
2026-04-18 16:21 38.14198 -84.74792 10087 ft 224 kts 141°
2026-04-18 16:21 38.13224 -84.73254 10095 ft 223 kts 141°